User: anonymous   Login
Location: Detroit
(42.3310°N, 83.0460°W)
Time: 06:06:13
(UTC-04:00)
Language:

Courier 1B Rocket - Orbit

View from above orbital plane
View from above orbital plane
View from above satellite
View from above satellite

Ground track
Ground track

The orbit data is extracted from the following two-line orbital elements,

1 00059U 60013B   24110.62829639  .00000215  00000-0  16532-3 0  9995
2 00059  28.2480 215.2007 0188882 175.5898 184.6353 13.53066018136288
Epoch (UTC): 19 April 2024 15:04:44
Eccentricity: 0.0188882
inclination: 28.2480°
perigee height: 920 km
apogee height: 1201 km
right ascension of ascending node: 215.2007°
argument of perigee: 175.5898°
revolutions per day: 13.53066018
mean anomaly at epoch: 184.6353°
orbit number at epoch: 13628

The dashed part of the orbit path shows where the satellite is in the earth's shadow,  

DLR